Weather History for Ozark, AL

Change the Weather History Date:

Friday, March 14, 2014

  Actual Average Record
Temperature  
Mean Temperature 52 °F -  
Max Temperature 69 °F 67 °F 83 °F (2012)
Min Temperature 34 °F 46 °F 33 °F (1998)
Degree Days  
Heating Degree Days 14    
Growing Degree Days 2 (Base 50)    
Moisture  
Dew Point 34 °F    
Average Humidity 56    
Maximum Humidity 89    
Minimum Humidity 24    
Precipitation  
Precipitation 0.00 in - - ()
Sea Level Pressure  
Sea Level Pressure 30.24 in    
Wind  
Wind Speed 5 mph (SSE)    
Max Wind Speed 13 mph    
Max Gust Speed 17 mph    
Visibility 10 miles    
Events      
Averages and records for this station are not official NWS values.
T = Trace of Precipitation, MM = Missing Value Source: NWS Daily Summary

Daily Weather History Graph

Daily Weather History Graph

Search for Another Location

Airport:

Trip Planner

Search our weather history database for the weather conditions in past years. The results will help you decide how hot, cold, wet, or windy it might be!

Date:

Astronomy

Mar. 14, 2014 Rise Set
Actual Time 6:54 AM CDT 6:50 PM CDT
Civil Twilight 6:29 AM CDT 7:14 PM CDT
Nautical Twilight 6:01 AM CDT 7:42 PM CDT
Astronomical Twilight 5:33 AM CDT 8:10 PM CDT
Moon 5:16 PM CDT (3/14) 5:28 AM CDT (3/14)
Length of Visible Light 12h 44m
Length of Day
11h 56m
Waxing Gibbous, 96% of the Moon is Illuminated
Mar 14
Waxing Gibbous
Mar 16
Full
Mar 23
Last Quarter
Mar 30
New
Apr 7
First Quarter

Hourly Weather History & Observations

Time (CDT) Temp. Windchill Dew Point Humidity Pressure Visibility Wind Dir Wind Speed Gust Speed Precip Events Conditions
12:58 AM 40.1 °F - 34.0 °F 79% 30.26 in 10.0 mi NNE 2.3 mph - N/A   Clear
1:58 AM 38.5 °F - 33.1 °F 81% 30.26 in 9.0 mi NE 2.3 mph - N/A   Clear
2:58 AM 36.7 °F 32.9 °F 33.1 °F 87% 30.25 in 10.0 mi NE 4.6 mph - N/A   Clear
3:58 AM 35.2 °F 31.2 °F 32.4 °F 89% 30.25 in 10.0 mi ENE 4.6 mph - N/A   Clear
4:58 AM 35.2 °F 30.3 °F 32.2 °F 89% 30.25 in 10.0 mi NE 5.8 mph - N/A   Clear
5:58 AM 34.7 °F 31.8 °F 31.3 °F 87% 30.27 in 10.0 mi NE 3.5 mph - N/A   Clear
6:58 AM 34.7 °F 31.8 °F 30.4 °F 84% 30.27 in 10.0 mi Variable 3.5 mph - N/A   Clear
7:58 AM 39.4 °F 36.1 °F 32.4 °F 76% 30.29 in 10.0 mi NE 4.6 mph - N/A   Clear
8:58 AM 48.9 °F - 30.9 °F 50% 30.32 in 10.0 mi Variable 3.5 mph - N/A   Clear
9:58 AM 56.1 °F - 28.0 °F 34% 30.33 in 10.0 mi SE 10.4 mph - N/A   Clear
10:58 AM 60.1 °F - 28.0 °F 30% 30.33 in 10.0 mi SE 9.2 mph - N/A   Clear
11:58 AM 62.4 °F - 27.7 °F 27% 30.30 in 10.0 mi SSE 10.4 mph - N/A   Clear
12:58 PM 64.6 °F - 27.7 °F 25% 30.27 in 10.0 mi South 11.5 mph 16.1 mph N/A   Clear
1:58 PM 66.2 °F - 28.9 °F 25% 30.23 in 10.0 mi South 11.5 mph 17.3 mph N/A   Clear
2:58 PM 67.6 °F - 29.3 °F 24% 30.20 in 10.0 mi SW 10.4 mph - N/A   Clear
3:58 PM 69.3 °F - 31.1 °F 24% 30.18 in 10.0 mi SSW 4.6 mph - N/A   Clear
4:58 PM 69.3 °F - 33.6 °F 27% 30.16 in 10.0 mi South 10.4 mph - N/A   Clear
5:58 PM 67.6 °F - 36.3 °F 32% 30.16 in 10.0 mi South 12.7 mph - N/A   Clear
6:58 PM 62.8 °F - 39.2 °F 42% 30.18 in 10.0 mi SW 10.4 mph - N/A   Mostly Cloudy
7:58 PM 58.6 °F - 40.3 °F 51% 30.18 in 10.0 mi SW 8.1 mph - N/A   Scattered Clouds
8:58 PM 55.4 °F - 42.3 °F 61% 30.20 in 10.0 mi SW 5.8 mph - N/A   Clear
9:58 PM 52.3 °F - 42.8 °F 70% 30.21 in 10.0 mi SSW 5.8 mph - N/A   Clear
10:58 PM 51.1 °F - 42.8 °F 73% 30.19 in 10.0 mi South 3.5 mph - N/A   Clear
11:58 PM 49.5 °F - 43.0 °F 78% 30.19 in 10.0 mi Calm Calm - N/A   Clear